Location: Bakov nad Jizerou
(50.4784°N, 14.9394°E)
Time: 12:44:51
(UTC+00:00)

Resurs 01 Rocket - Pass Details

Date: 16 June 2021
Orbit: 635 x 643 km, 97.9° (Epoch: 02 August)

Event Time Altitude Azimuth Distance (km) Brightness Sun altitude
Rises 21:05:20 0° 222° (SW) 2,926 4.8 -11.8°
Reaches altitude 10° 21:09:18 10° 258° (WSW) 2,025 4.4 -12.1°
Maximum altitude 21:10:32 11° 274° (W) 1,960 4.5 -12.2°
Drops below altitude 10° 21:11:46 10° 291° (WNW) 2,030 4.9 -12.3°
Sets 21:15:46 0° 327° (NNW) 2,947 7.0 -12.6°
